AFL7453 UUYH-ULAA

Flight info

Callsign AFL7453
Flight time 1h 10m
Altitude 38000
Route UTUKA3Q UTUKA P35 LKN T821 GUMSA GUMSA3M
Aircraft B736/M-SDE2E3FGHIRWXY/LB1

Departure

Time 2026-05-05 17:51
Airport Ukhta Airport (UUYH)

Arrival

Time 2026-05-05 19:01
Airport Talagi Airport (ULAA)
Time Latitude Longitude Altitude Speed Heading
2026-05-05 17:29 63.55790 53.80270 473 ft 0 kts 106°
2026-05-05 17:47 63.55790 53.80271 470 ft 1 kts 106°
2026-05-05 17:47 63.55787 53.80295 469 ft 3 kts 105°
2026-05-05 17:47 63.55770 53.80333 473 ft 4 kts 162°
2026-05-05 17:48 63.55739 53.80323 474 ft 5 kts 196°
2026-05-05 17:48 63.55711 53.80265 477 ft 6 kts 233°
2026-05-05 17:48 63.55727 53.80201 475 ft 6 kts 348°
2026-05-05 17:48 63.55772 53.80174 477 ft 4 kts 333°
2026-05-05 17:49 63.55774 53.80171 477 ft 0 kts 325°
2026-05-05 17:49 63.55775 53.80169 477 ft 1 kts 325°
2026-05-05 17:49 63.55791 53.80143 476 ft 5 kts 325°
2026-05-05 17:49 63.55831 53.80082 474 ft 9 kts 325°
2026-05-05 17:50 63.55880 53.79998 475 ft 8 kts 317°
2026-05-05 17:50 63.55943 53.79987 475 ft 11 kts 14°
2026-05-05 17:50 63.56091 53.80074 472 ft 48 kts 14°
2026-05-05 17:50 63.56713 53.80460 460 ft 134 kts 15°
2026-05-05 17:51 63.57765 53.81077 855 ft 166 kts 14°
2026-05-05 17:51 63.58842 53.81794 1946 ft 160 kts
2026-05-05 17:51 63.59925 53.82467 2829 ft 171 kts
2026-05-05 17:51 63.61189 53.83227 3191 ft 206 kts
2026-05-05 17:52 63.62678 53.84144 3550 ft 235 kts
2026-05-05 17:52 63.64353 53.84170 4048 ft 249 kts 335°
2026-05-05 17:52 63.65705 53.81869 5094 ft 245 kts 303°
2026-05-05 17:52 63.66449 53.78439 6196 ft 247 kts 288°
2026-05-05 17:53 63.66971 53.74724 7210 ft 251 kts 284°
2026-05-05 17:53 63.67451 53.70926 8281 ft 253 kts 283°
2026-05-05 17:53 63.67928 53.67095 9349 ft 256 kts 282°
2026-05-05 17:53 63.68418 53.63193 10205 ft 265 kts 282°
2026-05-05 17:54 63.68947 53.58985 10486 ft 293 kts 282°
2026-05-05 17:54 63.69523 53.54463 11165 ft 304 kts 283°
2026-05-05 17:54 63.70107 53.49935 12180 ft 304 kts 283°
2026-05-05 17:54 63.70699 53.45370 13252 ft 303 kts 282°
2026-05-05 17:55 63.71294 53.40784 14108 ft 307 kts 282°
2026-05-05 17:55 63.71898 53.36118 14874 ft 312 kts 282°
2026-05-05 17:55 63.72510 53.31388 15658 ft 316 kts 282°
2026-05-05 17:55 63.73127 53.26603 16471 ft 320 kts 282°
2026-05-05 17:56 63.73752 53.21744 17285 ft 324 kts 282°
2026-05-05 17:56 63.74382 53.16838 18064 ft 328 kts 282°
2026-05-05 17:56 63.75018 53.11867 18760 ft 331 kts 282°
2026-05-05 17:56 63.75660 53.06838 19472 ft 334 kts 282°
2026-05-05 17:57 63.76305 53.01772 20171 ft 338 kts 282°
2026-05-05 17:57 63.76956 52.96636 20861 ft 341 kts 282°
2026-05-05 17:57 63.77611 52.91452 21545 ft 345 kts 282°
2026-05-05 17:57 63.78273 52.86200 22225 ft 349 kts 282°
2026-05-05 17:58 63.78939 52.80897 22899 ft 353 kts 281°
2026-05-05 17:58 63.79603 52.75589 23511 ft 356 kts 282°
2026-05-05 17:58 63.80279 52.70169 24094 ft 359 kts 282°
2026-05-05 17:58 63.80957 52.64721 24680 ft 361 kts 282°
2026-05-05 17:59 63.81638 52.59225 25267 ft 364 kts 282°
2026-05-05 17:59 63.82323 52.53672 25811 ft 367 kts 282°
2026-05-05 17:59 63.83011 52.48089 26355 ft 370 kts 282°
2026-05-05 17:59 63.83705 52.42431 26888 ft 373 kts 282°
2026-05-05 18:00 63.84399 52.36745 27426 ft 376 kts 282°
2026-05-05 18:00 63.85112 52.31024 27903 ft 379 kts 284°
2026-05-05 18:00 63.86028 52.25370 28389 ft 384 kts 288°
2026-05-05 18:00 63.87074 52.19764 28881 ft 388 kts 289°
2026-05-05 18:01 63.88166 52.14142 29359 ft 391 kts 290°
2026-05-05 18:01 63.89269 52.08475 29863 ft 392 kts 289°
2026-05-05 18:01 63.90353 52.02849 30577 ft 386 kts 289°
2026-05-05 18:01 63.91410 51.97280 31190 ft 383 kts 288°
2026-05-05 18:02 63.92454 51.91707 31602 ft 384 kts 288°
2026-05-05 18:02 63.93492 51.86106 31997 ft 385 kts 288°
2026-05-05 18:02 63.94524 51.80499 32491 ft 383 kts 288°
2026-05-05 18:02 63.95548 51.74914 33006 ft 381 kts 288°
2026-05-05 18:03 63.96563 51.69351 33450 ft 381 kts 288°
2026-05-05 18:03 63.97577 51.63778 33820 ft 381 kts 288°
2026-05-05 18:03 63.98591 51.58187 34110 ft 382 kts 288°
2026-05-05 18:03 63.99605 51.52579 34366 ft 384 kts 288°
2026-05-05 18:04 64.00622 51.46940 34656 ft 385 kts 288°
2026-05-05 18:04 64.01637 51.41293 34934 ft 386 kts 288°
2026-05-05 18:04 64.02655 51.35618 35204 ft 387 kts 288°
2026-05-05 18:04 64.03672 51.29932 35477 ft 388 kts 288°
2026-05-05 18:05 64.04676 51.24303 35827 ft 388 kts 287°
2026-05-05 18:05 64.05704 51.18525 36116 ft 388 kts 287°
2026-05-05 18:05 64.06706 51.12872 36339 ft 389 kts 287°
2026-05-05 18:05 64.07721 51.07133 36584 ft 390 kts 287°
2026-05-05 18:06 64.08737 51.01367 36820 ft 391 kts 287°
2026-05-05 18:06 64.10771 50.89776 37304 ft 393 kts 287°
2026-05-05 18:06 64.11459 50.85839 37478 ft 393 kts 287°
2026-05-05 18:07 64.12474 50.80017 37630 ft 396 kts 287°
2026-05-05 18:07 64.14519 50.68228 37617 ft 398 kts 288°
2026-05-05 18:08 64.16548 50.56473 37627 ft 395 kts 287°
2026-05-05 18:08 64.18540 50.44863 37651 ft 393 kts 287°
2026-05-05 18:09 64.20529 50.33187 37624 ft 392 kts 287°
2026-05-05 18:09 64.22502 50.21534 37621 ft 391 kts 287°
2026-05-05 18:10 64.24461 50.09894 37606 ft 390 kts 287°
2026-05-05 18:10 64.26409 49.98244 37610 ft 390 kts 287°
2026-05-05 18:11 64.28349 49.86573 37611 ft 391 kts 287°
2026-05-05 18:11 64.30287 49.74843 37607 ft 392 kts 287°
2026-05-05 18:12 64.32221 49.63059 37631 ft 394 kts 286°
2026-05-05 18:12 64.34156 49.51198 37601 ft 395 kts 286°
2026-05-05 18:13 64.36086 49.39300 37601 ft 396 kts 286°
2026-05-05 18:13 64.38012 49.27353 37600 ft 397 kts 286°
2026-05-05 18:14 64.39957 49.15424 37563 ft 397 kts 286°
2026-05-05 18:14 64.41933 49.03509 37585 ft 396 kts 286°
2026-05-05 18:15 64.43890 48.91610 37582 ft 395 kts 286°
2026-05-05 18:15 64.45828 48.79704 37582 ft 395 kts 285°
2026-05-05 18:16 64.47715 48.67728 37586 ft 395 kts 285°
2026-05-05 18:16 64.49576 48.55738 37577 ft 395 kts 285°
2026-05-05 18:17 64.51421 48.43795 37564 ft 396 kts 285°
2026-05-05 18:17 64.53273 48.31755 37567 ft 396 kts 285°
2026-05-05 18:18 64.55117 48.19693 37571 ft 396 kts 285°
2026-05-05 18:18 64.56955 48.07594 37555 ft 396 kts 285°
2026-05-05 18:19 64.58783 47.95470 37567 ft 398 kts 285°
2026-05-05 18:19 64.60608 47.83292 37555 ft 399 kts 285°
2026-05-05 18:20 64.62428 47.71061 37554 ft 399 kts 285°
2026-05-05 18:20 64.64239 47.58803 37552 ft 400 kts 284°
2026-05-05 18:21 64.66032 47.46591 37528 ft 400 kts 284°
2026-05-05 18:21 64.67825 47.34288 37544 ft 400 kts 284°
2026-05-05 18:22 64.69618 47.21901 37546 ft 400 kts 284°
2026-05-05 18:22 64.71382 47.09635 37547 ft 401 kts 284°
2026-05-05 18:23 64.73097 46.97239 37545 ft 400 kts 283°
2026-05-05 18:23 64.74751 46.84808 37540 ft 400 kts 283°
2026-05-05 18:24 64.76405 46.72374 37530 ft 399 kts 283°
2026-05-05 18:24 64.78051 46.59956 37530 ft 399 kts 282°
2026-05-05 18:25 64.79680 46.47522 37523 ft 398 kts 283°
2026-05-05 18:25 64.81287 46.35098 37525 ft 398 kts 283°
2026-05-05 18:26 64.82885 46.22660 37523 ft 398 kts 282°
2026-05-05 18:26 64.84475 46.10196 37510 ft 398 kts 282°
2026-05-05 18:27 64.86054 45.97735 37522 ft 397 kts 282°
2026-05-05 18:27 64.87621 45.85286 37521 ft 397 kts 282°
2026-05-05 18:28 64.88796 45.66251 36952 ft 394 kts 264°
2026-05-05 18:28 64.88474 45.59961 36419 ft 389 kts 260°
2026-05-05 18:28 64.88068 45.53724 36020 ft 382 kts 259°
2026-05-05 18:29 64.87658 45.47590 35559 ft 377 kts 259°
2026-05-05 18:29 64.87256 45.41517 35111 ft 372 kts 259°
2026-05-05 18:29 64.86864 45.35543 34667 ft 368 kts 259°
2026-05-05 18:29 64.86480 45.29645 34234 ft 363 kts 259°
2026-05-05 18:30 64.86100 45.23816 33826 ft 358 kts 259°
2026-05-05 18:30 64.85725 45.18061 33386 ft 354 kts 259°
2026-05-05 18:30 64.85353 45.12382 32898 ft 349 kts 258°
2026-05-05 18:30 64.84987 45.06805 32486 ft 343 kts 258°
2026-05-05 18:31 64.84624 45.01310 32078 ft 337 kts 258°
2026-05-05 18:31 64.84265 44.95927 31678 ft 331 kts 258°
2026-05-05 18:31 64.83905 44.90626 31314 ft 325 kts 258°
2026-05-05 18:31 64.83522 44.85464 31069 ft 316 kts 257°
2026-05-05 18:32 64.83133 44.80443 30800 ft 309 kts 257°
2026-05-05 18:32 64.82748 44.75534 30529 ft 302 kts 257°
2026-05-05 18:32 64.82370 44.70721 30280 ft 298 kts 257°
2026-05-05 18:32 64.81990 44.65908 30044 ft 301 kts 257°
2026-05-05 18:33 64.81730 44.62631 29884 ft 304 kts 257°
2026-05-05 18:33 64.81295 44.57130 29617 ft 305 kts 257°
2026-05-05 18:33 64.80909 44.52256 29333 ft 301 kts 257°
2026-05-05 18:33 64.80527 44.47445 29039 ft 298 kts 257°
2026-05-05 18:34 64.80147 44.42670 28750 ft 296 kts 257°
2026-05-05 18:34 64.79770 44.37954 28451 ft 293 kts 257°
2026-05-05 18:34 64.79396 44.33289 28096 ft 288 kts 257°
2026-05-05 18:34 64.79027 44.28712 27743 ft 283 kts 257°
2026-05-05 18:35 64.78664 44.24209 27370 ft 279 kts 257°
2026-05-05 18:35 64.78305 44.19783 27012 ft 275 kts 257°
2026-05-05 18:35 64.77948 44.15413 26645 ft 271 kts 256°
2026-05-05 18:35 64.77594 44.11098 26302 ft 267 kts 256°
2026-05-05 18:36 64.77245 44.06857 25965 ft 263 kts 256°
2026-05-05 18:36 64.76899 44.02669 25627 ft 260 kts 256°
2026-05-05 18:36 64.76557 43.98537 25290 ft 257 kts 256°
2026-05-05 18:36 64.76216 43.94433 25052 ft 255 kts 256°
2026-05-05 18:37 64.75870 43.90303 24815 ft 262 kts 256°
2026-05-05 18:37 64.75513 43.86052 24580 ft 269 kts 256°
2026-05-05 18:37 64.75154 43.81790 24294 ft 270 kts 256°
2026-05-05 18:37 64.74794 43.77503 23934 ft 267 kts 256°
2026-05-05 18:38 64.74435 43.73262 23566 ft 265 kts 256°
2026-05-05 18:38 64.74078 43.69051 23187 ft 263 kts 256°
2026-05-05 18:38 64.73722 43.64864 22756 ft 261 kts 256°
2026-05-05 18:38 64.73368 43.60720 22334 ft 259 kts 256°
2026-05-05 18:39 64.73016 43.56605 21969 ft 255 kts 256°
2026-05-05 18:39 64.72668 43.52555 21586 ft 252 kts 256°
2026-05-05 18:39 64.72321 43.48552 21205 ft 249 kts 256°
2026-05-05 18:39 64.71978 43.44601 20841 ft 247 kts 256°
2026-05-05 18:40 64.71671 43.40675 20497 ft 244 kts 259°
2026-05-05 18:40 64.71501 43.36745 20168 ft 242 kts 261°
2026-05-05 18:40 64.71365 43.32828 19804 ft 240 kts 261°
2026-05-05 18:40 64.71233 43.28948 19457 ft 238 kts 261°
2026-05-05 18:41 64.71100 43.25100 19122 ft 236 kts 261°
2026-05-05 18:41 64.70966 43.21299 18790 ft 234 kts 261°
2026-05-05 18:41 64.70830 43.17524 18449 ft 232 kts 261°
2026-05-05 18:41 64.70693 43.13770 18122 ft 230 kts 261°
2026-05-05 18:42 64.70556 43.10056 17797 ft 229 kts 261°
2026-05-05 18:42 64.70418 43.06362 17424 ft 227 kts 261°
2026-05-05 18:42 64.70281 43.02714 17093 ft 225 kts 261°
2026-05-05 18:42 64.70144 42.99096 16780 ft 222 kts 261°
2026-05-05 18:43 64.70007 42.95488 16454 ft 224 kts 261°
2026-05-05 18:43 64.69865 42.91814 16115 ft 229 kts 261°
2026-05-05 18:43 64.69717 42.88026 15780 ft 239 kts 261°
2026-05-05 18:43 64.69562 42.84108 15413 ft 245 kts 261°
2026-05-05 18:44 64.69404 42.80158 15049 ft 243 kts 260°
2026-05-05 18:44 64.69135 42.76288 14701 ft 240 kts 256°
2026-05-05 18:44 64.68801 42.72484 14366 ft 238 kts 256°
2026-05-05 18:44 64.68459 42.68719 14024 ft 237 kts 256°
2026-05-05 18:45 64.68119 42.64968 13690 ft 235 kts 256°
2026-05-05 18:45 64.67782 42.61230 13357 ft 235 kts 256°
2026-05-05 18:45 64.67447 42.57509 13003 ft 234 kts 256°
2026-05-05 18:45 64.67114 42.53803 12668 ft 233 kts 256°
2026-05-05 18:46 64.66784 42.50117 12341 ft 231 kts 254°
2026-05-05 18:46 64.66455 42.46458 12002 ft 230 kts 254°
2026-05-05 18:46 64.66239 42.44052 11795 ft 228 kts 254°
2026-05-05 18:46 64.65913 42.40432 11473 ft 227 kts 255°
2026-05-05 18:47 64.65590 42.36841 11146 ft 225 kts 255°
2026-05-05 18:47 64.65269 42.33283 10849 ft 223 kts 255°
2026-05-05 18:47 64.64949 42.29750 10523 ft 222 kts 255°
2026-05-05 18:47 64.64629 42.26229 10226 ft 223 kts 255°
2026-05-05 18:48 64.64303 42.22655 9926 ft 229 kts 255°
2026-05-05 18:48 64.63964 42.18949 9646 ft 235 kts 255°
2026-05-05 18:48 64.63629 42.15283 9476 ft 228 kts 255°
2026-05-05 18:48 64.63298 42.11665 9146 ft 228 kts 255°
2026-05-05 18:49 64.62967 42.08069 8830 ft 225 kts 255°
2026-05-05 18:49 64.62641 42.04529 8542 ft 222 kts 255°
2026-05-05 18:49 64.62321 42.01066 8264 ft 220 kts 255°
2026-05-05 18:49 64.62000 41.97604 7981 ft 218 kts 256°
2026-05-05 18:50 64.61681 41.94169 7677 ft 216 kts 256°
2026-05-05 18:50 64.61365 41.90768 7396 ft 214 kts 256°
2026-05-05 18:50 64.61049 41.87381 7111 ft 213 kts 256°
2026-05-05 18:50 64.60730 41.83988 6839 ft 211 kts 256°
2026-05-05 18:51 64.60417 41.80657 6565 ft 211 kts 256°
2026-05-05 18:51 64.60101 41.77314 6290 ft 211 kts 257°
2026-05-05 18:51 64.59784 41.73976 6015 ft 212 kts 257°
2026-05-05 18:51 64.59466 41.70632 5758 ft 211 kts 257°
2026-05-05 18:52 64.59152 41.67342 5499 ft 210 kts 257°
2026-05-05 18:52 64.58836 41.64028 5231 ft 209 kts 257°
2026-05-05 18:52 64.58520 41.60730 4965 ft 208 kts 257°
2026-05-05 18:52 64.58206 41.57437 4695 ft 208 kts 257°
2026-05-05 18:53 64.57885 41.54105 4415 ft 208 kts 257°
2026-05-05 18:53 64.57570 41.50841 4148 ft 213 kts 257°
2026-05-05 18:53 64.57238 41.47416 3884 ft 220 kts 257°
2026-05-05 18:53 64.56906 41.43991 3797 ft 213 kts 257°
2026-05-05 18:54 64.56595 41.40679 3674 ft 206 kts 261°
2026-05-05 18:54 64.56654 41.37429 3615 ft 198 kts 278°
2026-05-05 18:54 64.56887 41.34341 3522 ft 190 kts 276°
2026-05-05 18:54 64.57061 41.31364 3428 ft 182 kts 275°
2026-05-05 18:55 64.57221 41.28416 3172 ft 184 kts 274°
2026-05-05 18:55 64.57375 41.25456 2939 ft 185 kts 274°
2026-05-05 18:55 64.57526 41.22481 2678 ft 185 kts 274°
2026-05-05 18:55 64.57674 41.19510 2406 ft 184 kts 274°
2026-05-05 18:56 64.57819 41.16581 2249 ft 177 kts 274°
2026-05-05 18:56 64.57958 41.13781 2248 ft 174 kts 274°
2026-05-05 18:56 64.58096 41.10963 2261 ft 173 kts 274°
2026-05-05 18:56 64.58261 41.08281 2261 ft 162 kts 275°
2026-05-05 18:57 64.58404 41.05736 2055 ft 152 kts 274°
2026-05-05 18:57 64.58520 41.03407 2013 ft 142 kts 274°
2026-05-05 18:57 64.58627 41.01129 2008 ft 141 kts 274°
2026-05-05 18:57 64.58729 40.98946 2012 ft 130 kts 274°
2026-05-05 18:58 64.58823 40.96940 1943 ft 122 kts 274°
2026-05-05 18:58 64.58913 40.95001 1802 ft 120 kts 275°
2026-05-05 18:58 64.59005 40.93039 1634 ft 123 kts 274°
2026-05-05 18:58 64.59097 40.91061 1465 ft 123 kts 274°
2026-05-05 18:59 64.59190 40.89099 1313 ft 122 kts 274°
2026-05-05 18:59 64.59284 40.87118 1138 ft 124 kts 275°
2026-05-05 18:59 64.59378 40.85085 929 ft 129 kts 274°
2026-05-05 18:59 64.59460 40.82956 727 ft 133 kts 274°
2026-05-05 19:00 64.59575 40.80854 638 ft 131 kts 276°
2026-05-05 19:00 64.59696 40.78704 454 ft 134 kts 274°
2026-05-05 19:00 64.59786 40.76549 261 ft 133 kts 275°
2026-05-05 19:00 64.59888 40.74465 91 ft 126 kts 274°
2026-05-05 19:01 64.59986 40.72565 37 ft 102 kts 276°
2026-05-05 19:01 64.60046 40.71283 37 ft 58 kts 276°
2026-05-05 19:01 64.60077 40.70643 35 ft 21 kts 276°
2026-05-05 19:01 64.60092 40.70334 35 ft 12 kts 277°
2026-05-05 19:02 64.60078 40.70223 33 ft 7 kts 207°
2026-05-05 19:02 64.60032 40.70206 37 ft 7 kts 186°
2026-05-05 19:02 64.60007 40.70200 38 ft 0 kts 186°